USA 40 R/B DEB, 23395

Orbit data source: Space-Track

USA 40 R/B DEB, 23395 is space debris originally from a launch on Tue, 08 Aug 1989 UTC launched from the Air Force Eastern Test Range (AFETR). Debris objects in space refer to the collection of defunct objects orbiting the Earth. Examples of debris include non-operational satellites, rocket bodies, and fragments generated from explosions, collisions, or faulty payload assembly.

Loading next visibility...
Identifier
23395, 1989-061BT
Orbit
Active
Country
Flag of USUS
Related business
Manufacturer
Unknown
Mission
Spacecraft
Bus & Motor
Unknown
Mass
Unknown
Launch date (UTC)
1989-08-08 (37 years ago)
Launch vehicle
Unknown
Launch site
Air Force Eastern Test Range (AFETR)
Object type
Payload
Rocket body
Debris
Shape & HBR
Unknown shape, 0.1 m
Radar Cross Section
Medium (>0.1 m² and <1 m²)

Expand to show TLE details & history
Last TLE update: 2 months ago

TLE from 2 months ago
0 USA 40 R/B DEB
1 23395U 89061BT  26122.68423624  .00013254  00000-0  64453-2 0  9993
2 23395  57.1117 129.9966 2973324 241.1065  86.0030  9.03058587 77520
Epoch: 2026-05-02T16:25Z
TLE epoch observation values (Epoch: 2026-05-02T16:25:18.011Z)
Latitude
-0.00002°
Longitude
23.07294°
Altitude
3,996.376 km
Speed
5.995 km/s
True Right ascension
08h 39m 59s
True Declination
0° 00' 00"
Sunlit
Object was in daylight at epoch
Visualization orbit readout
Latitude
Unknown
Longitude
Unknown
Altitude
Unknown
Speed
Unknown
Apparent Right ascension
Unknown
Apparent Declination
Unknown
Sunlit
N/A
Visualization observer readout
Local Sidereal Time
03:48:35
Azimuth
Unknown
Elevation
Unknown
Doppler factor
Unknown
Orbital elements
Apogee altitude
6,258.438 km
Perigee altitude
466.147 km
Semi-major axis
9,740.43 km
Eccentricity
0.29733
Inclination
57.1117°
RAAN
129.9966°
Arg. of periapsis
241.1065°
True anomaly
118.97616°
Mean anomaly
86.003°
Eccentric anomaly
102.62687°
Mean motion
2.25775 °/min
Orbital period
159.45 mins
BSTAR
0.0064453
Loading maneuver chart data...
Computing Atmospheric mass density...
Loading historical data...
Loading historical data...
Loading historical data...
Loading historical data...
Loading historical data...
Loading historical data...
Loading historical data...

Documentation

Showing up to 5 results
|